[[{"header":{"parameterUnit":"m.s-1","parameterCategory":1,"la1":30.2991,"la2":30.254,"lo1":-89.0895,"lo2":-89.0444,"dy":0.0017,"dx":0.0017,"nx":28,"ny":28,"refTime":"2024-10-07T21:00:00:Z","depth":0,"parameterNumber":2,"parameterNumberName":"U-component_of_WINDS"},"data":[0,0,0,0,0,0,0,0,0,0,0,0,0,0,0,0,0,0,0,0,0,0,0,0,0,0,0,0,0,0,0,0,0,0,0,0,0,0,0,0,0,0,0,0,0,0,0,0,0,0,0,0,0,0,0,0,0,0,-2.2061,-2.2062,0,-2.212,-2.2121,-2.2121,-2.2089,-2.2087,-2.2085,-2.2084,-2.2145,-2.2148,-2.2152,0,0,0,0,0,0,0,0,0,0,0,0,0,-2.1923,-2.1925,-2.2061,-2.2062,-2.2063,-2.212,-2.2121,-2.2121,-2.2089,-2.2087,-2.2085,-2.2083,-2.2144,-2.2148,-2.2152,0,0,0,0,0,0,0,0,0,0,0,0,0,-2.1982,-2.1926,-2.2061,-2.2053,-2.2053,-2.212,-2.2121,-2.2122,-2.2089,-2.2087,-2.2084,-2.2082,-2.2143,-2.2148,-2.2152,-2.223,0,0,-2.2167,-2.2169,0,0,0,0,0,0,0,0,-2.1979,-2.1987,-2.2054,-2.2054,-2.2054,-2.2094,-2.2094,-2.2158,-2.209,-2.2076,-2.2084,-2.2081,-2.213,-2.2136,-2.2152,-2.2233,-2.2236,-2.2167,-2.217,-2.2172,-2.2173,0,0,0,0,0,0,0,-2.1975,-2.1985,-2.2084,-2.2055,-2.2055,-2.2047,-2.2053,-2.2106,-2.2116,-2.2077,-2.2074,-2.2082,-2.213,-2.2148,-2.2154,-2.2237,-2.2167,-2.2171,-2.2174,-2.2176,-2.2385,-2.2388,0,0,0,0,0,0,-2.1971,-2.1981,-2.2083,-2.2086,-2.201,-2.2052,-2.2058,-2.2084,-2.2115,-2.2118,-2.2084,-2.208,-2.2141,-2.2148,-2.2156,-2.225,-2.2172,-2.2176,-2.2179,-2.2382,-2.2386,-2.2388,0,0,0,0,0,0,-2.1968,-2.198,-2.208,-2.2033,-2.2045,-2.2057,-2.2086,-2.2086,-2.2104,-2.2121,-2.2122,-2.21,-2.2139,-2.2149,-2.2212,-2.2252,-2.2179,-2.2183,-2.2379,-2.2383,-2.2387,-2.2439,0,0,0,0,0,0,-2.1964,-2.198,-2.2009,-2.2034,-2.2048,-2.2135,-2.2088,-2.2089,-2.2112,-2.2108,-2.2137,-2.2139,-2.2138,-2.2205,-2.2217,-2.2257,-2.2187,-2.2376,-2.2381,-2.2386,-2.2434,-2.2444,-2.2453,0,0,0,0,0,-2.1959,-2.2021,-2.2011,-2.2023,-2.2085,-2.2138,-2.2146,-2.2143,-2.2116,-2.2146,-2.2156,-2.2138,-2.2245,-2.2212,-2.2225,-2.2267,-2.2373,-2.2379,-2.2385,-2.2429,-2.2442,-2.2453,0,0,0,0,0,0,-2.2001,-2.2025,-2.2013,-2.2085,-2.2109,-2.2132,-2.217,-2.2157,-2.219,-2.2185,-2.2181,-2.2187,-2.2253,-2.2266,-2.2229,-2.2344,-2.2305,-2.2314,-2.2334,-2.2346,-2.2356,-2.2352,-2.219,0,0,0,0,0,-2.2018,-2.2059,-2.2077,-2.2139,-2.2152,-2.2159,-2.2182,-2.2177,-2.2203,-2.2214,-2.2229,-2.2255,-2.2294,-2.2321,-2.2358,-2.2434,-2.2441,-2.247,-2.248,-2.2487,-2.2496,-2.2539,-2.2552,-2.2409,-2.2408,-2.2408,0,0,-2.2055,-2.2073,-2.2099,-2.2148,-2.2166,-2.2209,-2.2168,-2.2215,-2.2247,-2.2221,-2.2282,-2.2294,-2.2322,-2.2393,-2.2425,-2.2406,-2.2537,-2.2495,-2.2501,-2.2506,-2.2547,-2.256,-2.2572,-2.2413,-2.2412,-2.2411,0,0,-2.2144,-2.2161,-2.2215,-2.2234,-2.2263,-2.2267,-2.228,-2.2305,-2.2312,-2.2372,-2.2354,-2.2392,-2.246,-2.2481,-2.2501,-2.2598,-2.2583,-2.261,-2.2662,-2.2704,-2.2715,-2.2725,-2.2762,-2.2775,-2.2618,-2.2618,-2.2618,0,-2.2187,-2.225,-2.2244,-2.2293,-2.2315,-2.2293,-2.2348,-2.2367,-2.2407,-2.2423,-2.24,-2.2486,-2.2503,-2.2579,-2.2603,-2.2619,-2.2635,-2.2608,-2.2714,-2.2724,-2.2733,-2.2768,-2.2781,-2.2621,-2.2621,-2.2621,-2.262,0,-2.2301,-2.2345,-2.2385,-2.2424,-2.2451,-2.2502,-2.2505,-2.2532,-2.2526,-2.2532,-2.2595,-2.2615,-2.2656,-2.2674,-2.2667,-2.2749,-2.2737,-2.2714,-2.2675,-2.275,-2.2783,-2.2796,-2.2626,-2.2625,-2.2624,-2.2623,0,0,-2.242,-2.2454,-2.2469,-2.2487,-2.2517,-2.2551,-2.2601,-2.2641,-2.2666,-2.2693,-2.2737,-2.2794,-2.2774,-2.2796,-2.2792,-2.2829,-2.2906,-2.2802,-2.2802,-2.2822,-2.2999,-2.3018,-2.3033,-2.2895,-2.2898,-2.29,-2.2997,0,-2.2513,-2.2601,-2.2597,-2.268,-2.2721,-2.27,-2.2744,-2.2768,-2.2775,-2.2811,-2.2819,-2.2861,-2.283,-2.2844,-2.2878,-2.2889,-2.2942,-2.2882,-2.2937,-2.2939,-2.2933,-2.305,-2.3069,-2.316,-2.301,-2.3012,-2.3013,0,-2.2633,-2.2665,-2.2752,-2.2776,-2.2793,-2.2833,-2.2869,-2.2904,-2.293,-2.2933,-2.2958,-2.2948,-2.3,-2.2957,-2.3029,-2.2989,-2.301,-2.3019,-2.3022,-2.303,-2.2983,-2.3062,-2.3189,-2.3204,-2.3033,-2.3031,-2.303,0,-2.2713,-2.2777,-2.2838,-2.2853,-2.2882,-2.2911,-2.2925,-2.2948,-2.2973,-2.3004,-2.302,-2.3058,-2.3079,-2.3109,-2.3109,-2.3078,-2.3183,-2.314,-2.3188,-2.3188,-2.3213,-2.3212,-2.3348,-2.3223,-2.3223,-2.3223,-2.3223,0,-2.2819,-2.2873,-2.2875,-2.2912,-2.2973,-2.2968,-2.3028,-2.3039,-2.306,-2.3099,-2.3083,-2.312,-2.3118,-2.3156,-2.3157,-2.3217,-2.3226,-2.3231,-2.3231,-2.3234,-2.3234,-2.325,-2.3245,-2.3227,-2.3226,-2.3225,-2.3224,0,-2.292,-2.2923,-2.2988,-2.301,-2.3016,-2.306,-2.3079,-2.3115,-2.312,-2.3171,-2.3183,-2.3191,-2.3236,-2.3238,-2.3289,-2.329,-2.3364,-2.3356,-2.3356,-2.3355,-2.3404,-2.34,-2.3557,-2.3578,-2.3438,-2.3439,-2.344,0,-2.2988,-2.3029,-2.3056,-2.3081,-2.3096,-2.3137,-2.3161,-2.3158,-2.3184,-2.3217,-2.3249,-2.3292,-2.3326,-2.3398,-2.3409,-2.3448,-2.3442,-2.3495,-2.3448,-2.345,-2.3446,-2.3444,-2.3449,-2.3504,-2.3506,-2.3507,-2.3508,0,-2.3109,-2.3109,-2.3145,-2.3182,-2.3212,-2.3241,-2.3268,-2.3289,-2.3289,-2.332,-2.3364,-2.3391,-2.3443,-2.3486,-2.3524,-2.3538,-2.3524,-2.3522,-2.3536,-2.3541,-2.354,-2.3543,-2.3383,-2.3519,-2.3518,-2.3517,-2.3517,-2.3516,-2.3197,-2.3234,-2.3258,-2.3299,-2.3319,-2.3344,-2.338,-2.3389,-2.3426,-2.3468,-2.3463,-2.3514,-2.3539,-2.3589,-2.3606,-2.3645,-2.3628,-2.3647,-2.3652,-2.3658,-2.3664,-2.3531,-2.3652,-2.3652,-2.3651,-2.3651,-2.3651,0,-2.332,-2.3334,-2.3372,-2.341,-2.3443,-2.3424,-2.3453,-2.3482,-2.3526,-2.3551,-2.3584,-2.3636,-2.3678,-2.3692,-2.3732,-2.3762,-2.3756,-2.3773,-2.3772,-2.3776,-2.3676,-2.3662,-2.3776,-2.3776,-2.3776,-2.3776,-2.3776,-2.3776,-2.3387,-2.3449,-2.3451,-2.3521,-2.3535,-2.3584,-2.3603,-2.3626,-2.3646,-2.3705,-2.3739,-2.3747,-2.3768,-2.381,-2.3847,-2.385,-2.3867,-2.3887,-2.3887,-2.3795,-2.3782,-2.377,-2.3757,-2.389,-2.389,-2.3984,-2.3985,-2.3985]},{"header":{"parameterUnit":"m.s-1","parameterCategory":1,"la1":30.2991,"la2":30.254,"lo1":-89.0895,"lo2":-89.0444,"dy":0.0017,"dx":0.0017,"nx":28,"ny":28,"refTime":"2024-10-07T21:00:00:Z","depth":0,"parameterNumber":3,"parameterNumberName":"V-component_of_WINDS"},"data":[0,0,0,0,0,0,0,0,0,0,0,0,0,0,0,0,0,0,0,0,0,0,0,0,0,0,0,0,0,0,0,0,0,0,0,0,0,0,0,0,0,0,0,0,0,0,0,0,0,0,0,0,0,0,0,0,0,0,-4.9798,-4.9799,0,-4.9843,-4.9843,-4.9843,-4.9784,-4.9782,-4.978,-4.9778,-4.9819,-4.9822,-4.9825,0,0,0,0,0,0,0,0,0,0,0,0,0,-4.9658,-4.9661,-4.9798,-4.9799,-4.9799,-4.9842,-4.9843,-4.9844,-4.9784,-4.9782,-4.9779,-4.9777,-4.9818,-4.9821,-4.9825,0,0,0,0,0,0,0,0,0,0,0,0,0,-4.9712,-4.9662,-4.9798,-4.9775,-4.9773,-4.9842,-4.9843,-4.9844,-4.9785,-4.9782,-4.9778,-4.9775,-4.9817,-4.9821,-4.9826,-4.9918,0,0,-4.984,-4.9842,0,0,0,0,0,0,0,0,-4.9709,-4.9717,-4.9778,-4.9777,-4.9775,-4.9805,-4.9809,-4.9869,-4.9786,-4.978,-4.9778,-4.9774,-4.9816,-4.9821,-4.9836,-4.992,-4.9922,-4.984,-4.9843,-4.9845,-4.9846,0,0,0,0,0,0,0,-4.9705,-4.9715,-4.9815,-4.9779,-4.9777,-4.9761,-4.9765,-4.982,-4.9816,-4.9781,-4.9776,-4.9783,-4.9815,-4.9832,-4.9836,-4.9922,-4.984,-4.9844,-4.9847,-4.9849,-5.0085,-5.0088,0,0,0,0,0,0,-4.9705,-4.9712,-4.9814,-4.9817,-4.9734,-4.9766,-4.9771,-4.9798,-4.9815,-4.9814,-4.9785,-4.978,-4.9825,-4.9831,-4.9838,-4.9948,-4.9845,-4.9849,-4.9852,-5.0081,-5.0085,-5.0089,0,0,0,0,0,0,-4.9702,-4.9715,-4.9812,-4.9764,-4.9775,-4.9772,-4.9803,-4.9801,-4.9817,-4.9819,-4.9817,-4.9804,-4.9823,-4.9831,-4.9899,-4.9948,-4.9851,-4.9855,-5.0077,-5.0082,-5.0087,-5.0168,0,0,0,0,0,0,-4.9698,-4.9714,-4.975,-4.9765,-4.9778,-4.9874,-4.9806,-4.9804,-4.9826,-4.9819,-4.9835,-4.9835,-4.9821,-4.9892,-4.9904,-4.9953,-4.9859,-5.0073,-5.0079,-5.0086,-5.0161,-5.0175,-5.0188,0,0,0,0,0,-4.9694,-4.977,-4.9752,-4.9765,-4.9823,-4.9877,-4.9884,-4.9869,-4.983,-4.9866,-4.9867,-4.9834,-4.9941,-4.99,-4.9912,-4.9963,-5.0069,-5.0078,-5.0085,-5.0155,-5.0173,-5.0188,0,0,0,0,0,0,-4.9759,-4.9771,-4.9752,-4.9836,-4.9856,-4.9867,-4.9912,-4.9888,-4.9918,-4.991,-4.9888,-4.9892,-4.9965,-4.997,-4.9924,-5.0054,-4.9999,-5.0009,-5.0048,-5.0064,-5.0078,-5.0075,-4.9863,0,0,0,0,0,-4.9784,-4.9828,-4.9836,-4.9909,-4.992,-4.9915,-4.9937,-4.9924,-4.9943,-4.9951,-4.9957,-4.9976,-5.0014,-5.0039,-5.0074,-5.0161,-5.0164,-5.0202,-5.0216,-5.0227,-5.0237,-5.0284,-5.0301,-5.0115,-5.0115,-5.0115,0,0,-4.9834,-4.9846,-4.9875,-4.9922,-4.9937,-4.9982,-4.9922,-4.9973,-5.0006,-4.9958,-5.0024,-5.0028,-5.0048,-5.0126,-5.0161,-5.0133,-5.0289,-5.0237,-5.0246,-5.0249,-5.0294,-5.0311,-5.0327,-5.012,-5.0119,-5.0119,0,0,-4.995,-4.9963,-5.0026,-5.0042,-5.0065,-5.0061,-5.0076,-5.0091,-5.0093,-5.0159,-5.0124,-5.0162,-5.0228,-5.0244,-5.0261,-5.0383,-5.0354,-5.0395,-5.0465,-5.0511,-5.0526,-5.0539,-5.0583,-5.0599,-5.0404,-5.0404,-5.0404,0,-5.0009,-5.0078,-5.0061,-5.0115,-5.0137,-5.0097,-5.016,-5.0176,-5.0208,-5.0224,-5.0192,-5.0275,-5.0285,-5.0367,-5.0397,-5.0412,-5.0428,-5.0393,-5.0525,-5.0538,-5.055,-5.0592,-5.0609,-5.0409,-5.0409,-5.0408,-5.0408,0,-5.0151,-5.0199,-5.0246,-5.0282,-5.0308,-5.0366,-5.0357,-5.0385,-5.0369,-5.0368,-5.0435,-5.0446,-5.0483,-5.0501,-5.0485,-5.0581,-5.0563,-5.0529,-5.0473,-5.0573,-5.0612,-5.0628,-5.0416,-5.0414,-5.0413,-5.0412,0,0,-5.0309,-5.0334,-5.0352,-5.0368,-5.0391,-5.0427,-5.0483,-5.0521,-5.0546,-5.0569,-5.0616,-5.0672,-5.0642,-5.066,-5.0646,-5.0686,-5.0783,-5.0647,-5.0647,-5.0673,-5.089,-5.0917,-5.0936,-5.0764,-5.0767,-5.077,-5.0889,0,-5.0425,-5.0524,-5.0511,-5.0605,-5.065,-5.0613,-5.0662,-5.068,-5.0681,-5.0717,-5.0716,-5.0758,-5.0713,-5.0724,-5.0763,-5.0764,-5.0827,-5.0755,-5.0807,-5.0809,-5.0804,-5.0956,-5.0984,-5.1096,-5.0904,-5.0907,-5.0908,0,-5.0574,-5.0606,-5.0706,-5.0723,-5.0741,-5.0785,-5.0819,-5.0854,-5.0874,-5.0872,-5.0894,-5.0872,-5.0926,-5.087,-5.0945,-5.0896,-5.0916,-5.092,-5.0924,-5.0928,-5.0865,-5.0966,-5.1131,-5.1149,-5.0932,-5.093,-5.0929,0,-5.0681,-5.0748,-5.0817,-5.0831,-5.0852,-5.0884,-5.0894,-5.0911,-5.0935,-5.0964,-5.0979,-5.1013,-5.1032,-5.1059,-5.1046,-5.1006,-5.1124,-5.1066,-5.1123,-5.1123,-5.115,-5.1149,-5.1322,-5.1162,-5.1161,-5.1161,-5.1161,0,-5.0813,-5.0876,-5.0865,-5.0908,-5.0977,-5.096,-5.1028,-5.1033,-5.1048,-5.109,-5.1059,-5.1099,-5.108,-5.1118,-5.1108,-5.1172,-5.118,-5.1179,-5.1176,-5.1183,-5.1183,-5.1196,-5.1188,-5.1166,-5.1165,-5.1164,-5.1163,0,-5.0945,-5.094,-5.1013,-5.1027,-5.1032,-5.1082,-5.1094,-5.1133,-5.1131,-5.1184,-5.1196,-5.1192,-5.1235,-5.1226,-5.1272,-5.1265,-5.1347,-5.1333,-5.1341,-5.1338,-5.1396,-5.1391,-5.1584,-5.1609,-5.1432,-5.1434,-5.1435,0,-5.103,-5.1077,-5.1098,-5.1125,-5.1138,-5.1181,-5.1205,-5.119,-5.1217,-5.1244,-5.128,-5.132,-5.1352,-5.1422,-5.1423,-5.1459,-5.1446,-5.1512,-5.1451,-5.1457,-5.1448,-5.1446,-5.1451,-5.1524,-5.1526,-5.1527,-5.1529,0,-5.1182,-5.1177,-5.1215,-5.1253,-5.1283,-5.1312,-5.1336,-5.136,-5.1346,-5.1378,-5.1422,-5.1447,-5.1496,-5.1536,-5.1569,-5.1578,-5.1552,-5.1548,-5.1563,-5.1571,-5.1574,-5.1574,-5.1374,-5.1544,-5.1542,-5.1541,-5.154,-5.154,-5.1293,-5.1334,-5.1356,-5.1399,-5.1416,-5.144,-5.1479,-5.1482,-5.152,-5.1559,-5.1547,-5.1598,-5.1617,-5.1659,-5.1671,-5.171,-5.1685,-5.1707,-5.1713,-5.1719,-5.1727,-5.1567,-5.1716,-5.1715,-5.1715,-5.1714,-5.1714,0,-5.1444,-5.1456,-5.1496,-5.1533,-5.1567,-5.1541,-5.1567,-5.1597,-5.1643,-5.1663,-5.1696,-5.1747,-5.1787,-5.1791,-5.1828,-5.1858,-5.1847,-5.1869,-5.1867,-5.1869,-5.1746,-5.173,-5.1877,-5.1877,-5.1877,-5.1877,-5.1877,-5.1877,-5.1527,-5.1596,-5.1594,-5.1671,-5.1681,-5.1733,-5.175,-5.1772,-5.1789,-5.1848,-5.1882,-5.1885,-5.1899,-5.1936,-5.1971,-5.1971,-5.1987,-5.2013,-5.2009,-5.1894,-5.1878,-5.1862,-5.1847,-5.2016,-5.2017,-5.2129,-5.213,-5.213]}]]